Time,TemperatureF,DewpointF,PressureIn,WindDirection,WindDirectionDegrees,WindSpeedMPH,WindSpeedGustMPH,Humidity,HourlyPrecipIn,Conditions,Clouds,dailyrainin,SolarRadiationWatts/m^2,SoftwareType,DateUTC
2013-05-24 00:00:00,60.4,57.8,29.87,NNE,15,0.0,0.0,91,0.00,RA,SCT,0.00,0.0,WeatherDisplay:10.37,2013-05-24 04:00:00,
2013-05-24 00:05:00,60.4,57.8,29.87,NNE,15,0.0,0.0,91,0.00,RA,SCT,0.00,0.0,WeatherDisplay:10.37,2013-05-24 04:05:00,
2013-05-24 00:10:00,60.4,57.8,29.87,NNE,15,0.0,0.0,91,0.00,,SCT,0.00,0.0,WeatherDisplay:10.37,2013-05-24 04:10:00,
2013-05-24 00:15:00,60.5,57.9,29.87,NNE,15,0.0,0.0,91,0.00,,SCT,0.00,0.0,WeatherDisplay:10.37,2013-05-24 04:15:00,
2013-05-24 00:20:00,60.5,58.2,29.87,NNE,15,0.0,0.0,92,0.00,,SCT,0.00,0.0,WeatherDisplay:10.37,2013-05-24 04:20:00,
2013-05-24 00:25:00,60.6,58.2,29.87,NNE,15,0.0,0.0,92,0.00,,SCT,0.00,0.0,WeatherDisplay:10.37,2013-05-24 04:25:00,
2013-05-24 00:30:00,60.7,58.4,29.88,NNE,15,0.0,1.0,92,0.00,,SCT,0.00,0.0,WeatherDisplay:10.37,2013-05-24 04:30:00,
2013-05-24 00:35:00,60.8,58.4,29.88,NNE,15,0.0,1.0,92,0.00,,SCT,0.00,0.0,WeatherDisplay:10.37,2013-05-24 04:35:00,
2013-05-24 00:45:00,60.8,58.5,29.88,NNE,15,0.0,1.0,92,0.00,,SCT,0.00,0.0,WeatherDisplay:10.37,2013-05-24 04:45:00,
2013-05-24 00:50:00,60.9,58.6,29.88,NNE,15,0.0,1.0,92,0.00,,SCT,0.00,0.0,WeatherDisplay:10.37,2013-05-24 04:50:00,
2013-05-24 00:55:00,60.9,58.6,29.88,NNE,15,0.0,0.0,92,0.00,,SCT,0.00,0.0,WeatherDisplay:10.37,2013-05-24 04:55:00,
2013-05-24 01:00:00,61.0,58.7,29.88,NNE,15,0.0,1.0,92,0.00,,SCT,0.00,0.0,WeatherDisplay:10.37,2013-05-24 05:00:00,
2013-05-24 01:05:00,61.1,58.8,29.88,NNE,15,0.0,2.0,92,0.00,,SCT,0.00,0.0,WeatherDisplay:10.37,2013-05-24 05:05:00,
2013-05-24 01:10:00,61.1,58.8,29.88,NNE,15,1.0,3.0,92,0.00,,SCT,0.00,0.0,WeatherDisplay:10.37,2013-05-24 05:10:00,
2013-05-24 01:15:00,61.1,58.8,29.88,NNE,15,0.0,2.0,92,0.00,,SCT,0.00,0.0,WeatherDisplay:10.37,2013-05-24 05:15:00,
2013-05-24 01:20:00,61.1,58.8,29.87,NNE,15,0.0,1.0,92,0.00,,SCT,0.00,0.0,WeatherDisplay:10.37,2013-05-24 05:20:00,
2013-05-24 01:25:00,61.1,58.8,29.87,NNE,15,1.0,4.0,92,0.00,,SCT,0.00,0.0,WeatherDisplay:10.37,2013-05-24 05:25:00,
2013-05-24 01:30:00,61.0,58.7,29.87,NNE,15,0.0,3.0,92,0.00,,SCT,0.00,0.0,WeatherDisplay:10.37,2013-05-24 05:30:00,
2013-05-24 01:35:00,61.0,58.7,29.87,NNE,15,0.0,2.0,92,0.00,,SCT,0.00,0.0,WeatherDisplay:10.37,2013-05-24 05:35:00,
2013-05-24 01:40:00,61.0,58.7,29.87,NNE,15,0.0,1.0,92,0.00,,SCT,0.00,0.0,WeatherDisplay:10.37,2013-05-24 05:40:00,
2013-05-24 01:45:00,61.0,58.7,29.87,NNE,15,0.0,1.0,92,0.00,,SCT,0.00,0.0,WeatherDisplay:10.37,2013-05-24 05:45:00,
2013-05-24 01:50:00,61.0,58.7,29.87,NNE,15,0.0,1.0,92,0.00,,SCT,0.00,0.0,WeatherDisplay:10.37,2013-05-24 05:50:00,
2013-05-24 01:55:00,60.9,58.6,29.86,NNE,15,0.0,2.0,92,0.00,,SCT,0.00,0.0,WeatherDisplay:10.37,2013-05-24 05:55:00,
2013-05-24 02:00:00,60.9,58.6,29.86,NNE,15,0.0,1.0,92,0.00,,SCT,0.00,0.0,WeatherDisplay:10.37,2013-05-24 06:00:00,
2013-05-24 02:05:00,60.9,58.6,29.86,NNE,15,0.0,1.0,92,0.00,,SCT,0.00,0.0,WeatherDisplay:10.37,2013-05-24 06:05:00,
2013-05-24 02:10:00,60.8,58.5,29.86,NNE,15,1.0,3.0,92,0.00,,SCT,0.00,0.0,WeatherDisplay:10.37,2013-05-24 06:10:00,
2013-05-24 02:15:00,60.7,58.4,29.86,NNE,15,1.0,3.0,92,0.00,,SCT,0.00,0.0,WeatherDisplay:10.37,2013-05-24 06:15:00,
2013-05-24 02:20:00,60.7,58.3,29.86,NNE,15,0.0,1.0,92,0.00,,SCT,0.00,0.0,WeatherDisplay:10.37,2013-05-24 06:20:00,
2013-05-24 02:25:00,60.6,58.3,29.85,NNE,15,0.0,1.0,92,0.00,,SCT,0.00,0.0,WeatherDisplay:10.37,2013-05-24 06:25:00,
2013-05-24 02:30:00,60.5,58.2,29.85,NNE,15,0.0,4.0,92,0.00,,SCT,0.00,0.0,WeatherDisplay:10.37,2013-05-24 06:30:00,
2013-05-24 02:35:00,60.5,58.2,29.85,NNE,15,0.0,4.0,92,0.00,,SCT,0.00,0.0,WeatherDisplay:10.37,2013-05-24 06:35:00,
2013-05-24 02:40:00,60.4,58.1,29.85,NNE,15,0.0,4.0,92,0.00,,SCT,0.00,0.0,WeatherDisplay:10.37,2013-05-24 06:40:00,
2013-05-24 02:45:00,60.3,58.0,29.85,NNE,15,0.0,4.0,92,0.00,,SCT,0.00,0.0,WeatherDisplay:10.37,2013-05-24 06:45:00,
2013-05-24 02:50:00,60.2,57.9,29.85,NNE,15,0.0,0.0,92,0.00,,SCT,0.00,0.0,WeatherDisplay:10.37,2013-05-24 06:50:00,
2013-05-24 02:55:00,60.1,57.8,29.85,NNE,15,0.0,0.0,92,0.00,,SCT,0.00,0.0,WeatherDisplay:10.37,2013-05-24 06:55:00,
2013-05-24 03:00:00,60.0,57.7,29.85,NNE,15,0.0,0.0,92,0.00,,SCT,0.00,0.0,WeatherDisplay:10.37,2013-05-24 07:00:00,
2013-05-24 03:05:00,59.9,57.6,29.85,NNE,15,0.0,0.0,92,0.00,,SCT,0.00,0.0,WeatherDisplay:10.37,2013-05-24 07:05:00,
2013-05-24 03:10:00,59.7,57.3,29.85,NNE,15,0.0,0.0,92,0.00,,SCT,0.00,0.0,WeatherDisplay:10.37,2013-05-24 07:10:00,
2013-05-24 03:15:00,59.5,57.2,29.85,NNE,15,0.0,0.0,92,0.00,,SCT,0.00,0.0,WeatherDisplay:10.37,2013-05-24 07:15:00,
2013-05-24 03:20:00,59.4,57.1,29.85,NNE,15,0.0,4.0,92,0.00,,SCT,0.00,0.0,WeatherDisplay:10.37,2013-05-24 07:20:00,
2013-05-24 03:25:00,59.2,56.9,29.85,NNE,15,0.0,0.0,92,0.00,,SCT,0.00,0.0,WeatherDisplay:10.37,2013-05-24 07:25:00,
2013-05-24 03:30:00,59.0,56.7,29.85,NNE,15,0.0,0.0,92,0.00,,SCT,0.00,0.0,WeatherDisplay:10.37,2013-05-24 07:30:00,
2013-05-24 03:35:00,59.0,56.7,29.85,NNE,15,0.0,4.0,92,0.00,,SCT,0.00,0.0,WeatherDisplay:10.37,2013-05-24 07:35:00,
2013-05-24 03:40:00,59.0,56.7,29.85,NNE,15,0.0,0.0,92,0.00,,SCT,0.00,0.0,WeatherDisplay:10.37,2013-05-24 07:40:00,
2013-05-24 03:45:00,59.0,56.7,29.85,NNE,15,0.0,0.0,92,0.00,,SCT,0.00,0.0,WeatherDisplay:10.37,2013-05-24 07:45:00,
2013-05-24 03:50:00,58.9,56.6,29.85,NNE,15,0.0,4.0,92,0.00,,SCT,0.00,0.0,WeatherDisplay:10.37,2013-05-24 07:50:00,
2013-05-24 03:55:00,58.7,56.4,29.85,NNE,15,0.0,4.0,92,0.00,,SCT,0.00,0.0,WeatherDisplay:10.37,2013-05-24 07:55:00,
2013-05-24 04:00:00,58.6,56.3,29.86,NNE,15,0.0,1.0,92,0.00,,SCT,0.00,0.0,WeatherDisplay:10.37,2013-05-24 08:00:00,
2013-05-24 04:05:00,58.5,56.2,29.86,NNE,15,0.0,1.0,92,0.00,,SCT,0.00,0.0,WeatherDisplay:10.37,2013-05-24 08:05:00,
2013-05-24 04:10:00,58.5,56.2,29.86,NNE,15,0.0,0.0,92,0.00,,SCT,0.00,0.0,WeatherDisplay:10.37,2013-05-24 08:10:00,
2013-05-24 04:15:00,58.4,56.1,29.86,NNE,15,0.0,0.0,92,0.00,,SCT,0.00,0.0,WeatherDisplay:10.37,2013-05-24 08:15:00,
2013-05-24 04:20:00,58.4,56.1,29.86,NNE,15,0.0,0.0,92,0.00,,SCT,0.00,0.0,WeatherDisplay:10.37,2013-05-24 08:20:00,
2013-05-24 04:25:00,58.3,55.9,29.86,NNE,15,0.0,1.0,92,0.00,,SCT,0.00,0.0,WeatherDisplay:10.37,2013-05-24 08:25:00,
2013-05-24 04:30:00,58.2,55.9,29.86,NNE,15,0.0,0.0,92,0.00,,SCT,0.00,0.0,WeatherDisplay:10.37,2013-05-24 08:30:00,
2013-05-24 04:35:00,58.1,55.8,29.86,NNE,15,0.0,0.0,92,0.00,,SCT,0.00,0.0,WeatherDisplay:10.37,2013-05-24 08:35:00,
2013-05-24 04:40:00,58.0,55.7,29.86,NNE,15,0.0,0.0,92,0.00,,SCT,0.00,0.0,WeatherDisplay:10.37,2013-05-24 08:40:00,
2013-05-24 04:45:00,57.9,55.6,29.85,NNE,15,0.0,4.0,92,0.00,,SCT,0.00,0.0,WeatherDisplay:10.37,2013-05-24 08:45:00,
2013-05-24 04:50:00,57.8,55.5,29.86,NNE,15,0.0,0.0,92,0.00,,SCT,0.00,0.0,WeatherDisplay:10.37,2013-05-24 08:50:00,
2013-05-24 04:55:00,57.8,55.5,29.86,NNE,15,0.0,0.0,92,0.00,,SCT,0.00,0.0,WeatherDisplay:10.37,2013-05-24 08:55:00,
2013-05-24 05:00:00,57.8,55.5,29.85,NNE,15,0.0,0.0,92,0.00,,SCT,0.00,0.0,WeatherDisplay:10.37,2013-05-24 09:00:00,
2013-05-24 05:05:00,57.7,55.4,29.86,NNE,15,0.0,0.0,92,0.00,,SCT,0.00,0.0,WeatherDisplay:10.37,2013-05-24 09:05:00,
2013-05-24 05:10:00,57.6,55.3,29.86,NNE,15,0.0,0.0,92,0.00,,SCT,0.00,0.0,WeatherDisplay:10.37,2013-05-24 09:10:00,
2013-05-24 05:15:00,57.5,55.2,29.86,NNE,15,0.0,0.0,92,0.00,,SCT,0.00,0.0,WeatherDisplay:10.37,2013-05-24 09:15:00,
2013-05-24 05:20:00,57.4,55.1,29.86,NNE,15,0.0,0.0,92,0.00,,SCT,0.00,0.0,WeatherDisplay:10.37,2013-05-24 09:20:00,
2013-05-24 05:25:00,57.3,55.0,29.86,NNE,15,0.0,0.0,92,0.00,,SCT,0.00,0.0,WeatherDisplay:10.37,2013-05-24 09:25:00,
2013-05-24 05:30:00,57.1,54.8,29.86,NNE,15,0.0,0.0,92,0.00,,SCT,0.00,0.0,WeatherDisplay:10.37,2013-05-24 09:30:00,
2013-05-24 05:35:00,57.0,54.7,29.86,NNE,15,0.0,0.0,92,0.00,,SCT,0.00,0.0,WeatherDisplay:10.37,2013-05-24 09:35:00,
2013-05-24 05:40:00,56.8,54.5,29.87,NNE,15,0.0,0.0,92,0.00,,SCT,0.00,0.0,WeatherDisplay:10.37,2013-05-24 09:40:00,
2013-05-24 05:45:00,56.6,54.3,29.87,NNE,15,0.0,0.0,92,0.00,,SCT,0.00,0.0,WeatherDisplay:10.37,2013-05-24 09:45:00,
2013-05-24 05:50:00,56.4,54.1,29.87,NNE,15,0.0,0.0,92,0.00,,SCT,0.00,0.0,WeatherDisplay:10.37,2013-05-24 09:50:00,
2013-05-24 05:55:00,56.3,54.0,29.87,NNE,15,0.0,1.0,92,0.00,,SCT,0.00,0.0,WeatherDisplay:10.37,2013-05-24 09:55:00,
2013-05-24 06:00:00,56.1,53.8,29.87,NNE,15,0.0,4.0,92,0.00,,SCT,0.00,0.0,WeatherDisplay:10.37,2013-05-24 10:00:00,
2013-05-24 06:05:00,55.9,53.6,29.87,NNE,15,0.0,1.0,92,0.00,,SCT,0.00,0.0,WeatherDisplay:10.37,2013-05-24 10:05:00,
2013-05-24 06:10:00,55.8,53.5,29.87,North,9,0.0,0.0,92,0.00,,SCT,0.00,0.0,WeatherDisplay:10.37,2013-05-24 10:10:00,
2013-05-24 06:15:00,55.7,53.4,29.88,North,1,0.0,1.0,92,0.00,,SCT,0.00,0.0,WeatherDisplay:10.37,2013-05-24 10:15:00,
2013-05-24 06:20:00,55.6,53.3,29.88,North,350,0.0,0.0,92,0.00,,SCT,0.00,5.0,WeatherDisplay:10.37,2013-05-24 10:20:00,
2013-05-24 06:25:00,55.3,53.0,29.88,North,350,0.0,4.0,92,0.00,,SCT,0.00,7.0,WeatherDisplay:10.37,2013-05-24 10:25:00,
2013-05-24 06:30:00,55.2,52.9,29.88,North,350,0.0,0.0,92,0.00,,SCT,0.00,9.0,WeatherDisplay:10.37,2013-05-24 10:30:00,
2013-05-24 06:35:00,55.1,52.8,29.88,North,350,0.0,0.0,92,0.00,,SCT,0.00,11.0,WeatherDisplay:10.37,2013-05-24 10:35:00,
2013-05-24 06:40:00,55.1,52.8,29.88,North,350,0.0,0.0,92,0.00,BKN,SCT,0.00,14.0,WeatherDisplay:10.37,2013-05-24 10:40:00,
2013-05-24 06:45:00,55.1,52.9,29.88,North,350,0.0,0.0,92,0.00,BKN,SCT,0.00,16.0,WeatherDisplay:10.37,2013-05-24 10:45:00,
2013-05-24 06:50:00,55.3,53.0,29.88,North,350,0.0,4.0,92,0.00,,SCT,0.00,16.0,WeatherDisplay:10.37,2013-05-24 10:50:00,
2013-05-24 06:55:00,55.6,53.4,29.89,NNW,346,0.0,4.0,92,0.00,,SCT,0.00,18.0,WeatherDisplay:10.37,2013-05-24 10:55:00,
2013-05-24 07:00:00,56.0,53.7,29.89,NNW,330,0.0,0.0,92,0.00,,SCT,0.00,19.0,WeatherDisplay:10.37,2013-05-24 11:00:00,
2013-05-24 07:05:00,56.3,54.0,29.89,NNW,333,0.0,0.0,92,0.00,,SCT,0.00,21.0,WeatherDisplay:10.37,2013-05-24 11:05:00,
2013-05-24 07:10:00,56.9,54.6,29.89,North,5,0.0,1.0,92,0.00,,SCT,0.00,21.0,WeatherDisplay:10.37,2013-05-24 11:10:00,
2013-05-24 07:15:00,57.4,55.4,29.90,NNW,341,0.0,1.0,93,0.00,,SCT,0.00,23.0,WeatherDisplay:10.37,2013-05-24 11:15:00,
2013-05-24 07:20:00,57.7,55.4,29.90,NNW,336,0.0,4.0,92,0.00,,SCT,0.00,23.0,WeatherDisplay:10.37,2013-05-24 11:20:00,
2013-05-24 07:25:00,57.9,55.9,29.90,NNE,33,0.0,1.0,93,0.00,,SCT,0.00,25.0,WeatherDisplay:10.37,2013-05-24 11:25:00,
2013-05-24 07:30:00,58.1,56.1,29.90,ENE,58,0.0,4.0,93,0.00,,SCT,0.00,25.0,WeatherDisplay:10.37,2013-05-24 11:30:00,
2013-05-24 07:35:00,58.4,56.1,29.90,North,8,0.0,4.0,92,0.00,,SCT,0.00,28.0,WeatherDisplay:10.37,2013-05-24 11:35:00,
2013-05-24 07:40:00,59.0,56.9,29.91,North,2,0.0,4.0,93,0.00,,SCT,0.00,35.0,WeatherDisplay:10.37,2013-05-24 11:40:00,
2013-05-24 07:45:00,59.0,57.0,29.91,North,2,0.0,4.0,93,0.00,,SCT,0.00,46.0,WeatherDisplay:10.37,2013-05-24 11:45:00,
2013-05-24 07:50:00,59.4,57.4,29.91,North,3,0.0,4.0,93,0.00,BKN,SCT,0.00,90.0,WeatherDisplay:10.37,2013-05-24 11:50:00,
2013-05-24 07:55:00,59.6,57.6,29.91,North,4,0.0,0.0,93,0.00,BKN,SCT,0.00,88.0,WeatherDisplay:10.37,2013-05-24 11:55:00,
2013-05-24 08:00:00,59.7,57.7,29.92,North,4,0.0,1.0,93,0.00,BKN,SCT,0.00,86.0,WeatherDisplay:10.37,2013-05-24 12:00:00,
2013-05-24 08:05:00,59.7,58.0,29.92,North,3,0.0,2.0,94,0.00,BKN,SCT,0.00,74.0,WeatherDisplay:10.37,2013-05-24 12:05:00,
2013-05-24 08:10:00,59.6,57.2,29.92,North,6,0.0,2.0,92,0.00,BKN,SCT,0.00,111.0,WeatherDisplay:10.37,2013-05-24 12:10:00,
2013-05-24 08:15:00,59.4,57.1,29.92,NNE,17,0.0,4.0,92,0.00,BKN,SCT,0.00,98.0,WeatherDisplay:10.37,2013-05-24 12:15:00,
2013-05-24 08:20:00,59.4,57.4,29.92,North,349,1.0,3.0,93,0.00,BKN,SCT,0.00,125.0,WeatherDisplay:10.37,2013-05-24 12:20:00,
2013-05-24 08:25:00,59.6,57.3,29.92,NNW,340,0.0,2.0,92,0.00,BKN,SCT,0.00,88.0,WeatherDisplay:10.37,2013-05-24 12:25:00,
2013-05-24 08:30:00,60.0,57.9,29.92,NNW,338,3.0,5.0,93,0.00,BKN,SCT,0.00,97.0,WeatherDisplay:10.37,2013-05-24 12:30:00,
2013-05-24 08:35:00,60.4,58.4,29.93,NNW,337,1.0,4.0,93,0.00,OVC,SCT,0.00,56.0,WeatherDisplay:10.37,2013-05-24 12:35:00,
2013-05-24 08:40:00,60.9,58.9,29.93,NNW,337,1.0,3.0,93,0.00,OVC,SCT,0.00,60.0,WeatherDisplay:10.37,2013-05-24 12:40:00,
2013-05-24 08:45:00,61.1,59.1,29.93,NNW,337,0.0,4.0,93,0.00,OVC,SCT,0.00,90.0,WeatherDisplay:10.37,2013-05-24 12:45:00,
2013-05-24 08:50:00,61.4,59.4,29.94,NNW,336,1.0,5.0,93,0.00,OVC,SCT,0.00,128.0,WeatherDisplay:10.37,2013-05-24 12:50:00,
2013-05-24 08:55:00,61.6,59.6,29.94,NNW,329,3.0,7.0,93,0.00,BKN,SCT,0.00,97.0,WeatherDisplay:10.37,2013-05-24 12:55:00,
2013-05-24 09:00:00,62.0,59.6,29.95,NNW,331,2.0,8.0,92,0.00,OVC,SCT,0.00,79.0,WeatherDisplay:10.37,2013-05-24 13:00:00,
2013-05-24 09:05:00,62.3,59.6,29.95,North,349,5.0,8.0,91,0.00,OVC,SCT,0.00,74.0,WeatherDisplay:10.37,2013-05-24 13:05:00,
2013-05-24 09:10:00,62.6,59.0,29.95,NNW,333,1.0,10.0,88,0.00,OVC,SCT,0.00,79.0,WeatherDisplay:10.37,2013-05-24 13:10:00,
2013-05-24 09:15:00,62.9,58.6,29.96,NW,320,7.0,10.0,86,0.00,OVC,SCT,0.00,88.0,WeatherDisplay:10.37,2013-05-24 13:15:00,
2013-05-24 09:20:00,63.6,58.6,29.96,NW,317,6.0,13.0,84,0.00,OVC,SCT,0.00,98.0,WeatherDisplay:10.37,2013-05-24 13:20:00,
2013-05-24 09:25:00,64.2,57.6,29.97,NW,312,7.0,17.0,79,0.00,OVC,SCT,0.00,127.0,WeatherDisplay:10.37,2013-05-24 13:25:00,
2013-05-24 09:30:00,64.7,55.5,29.97,NW,312,13.0,18.0,72,0.00,OVC,SCT,0.00,93.0,WeatherDisplay:10.37,2013-05-24 13:30:00,
2013-05-24 09:35:00,64.8,55.2,29.98,NW,304,8.0,20.0,71,0.00,OVC,SCT,0.00,53.0,WeatherDisplay:10.37,2013-05-24 13:35:00,
2013-05-24 09:40:00,64.8,54.0,29.98,WNW,293,10.0,15.0,68,0.00,OVC,SCT,0.00,46.0,WeatherDisplay:10.37,2013-05-24 13:40:00,
2013-05-24 09:45:00,64.8,54.4,29.98,WNW,295,5.0,14.0,69,0.00,OVC,SCT,0.00,46.0,WeatherDisplay:10.37,2013-05-24 13:45:00,
2013-05-24 09:50:00,65.0,53.7,29.99,NW,317,8.0,16.0,67,0.00,OVC,SCT,0.00,49.0,WeatherDisplay:10.37,2013-05-24 13:50:00,
2013-05-24 09:55:00,65.1,53.9,29.99,NW,321,6.0,19.0,67,0.00,OVC,SCT,0.00,74.0,WeatherDisplay:10.37,2013-05-24 13:55:00,
2013-05-24 10:00:00,65.2,52.7,30.00,WNW,303,8.0,20.0,64,0.00,OVC,SCT,0.00,308.0,WeatherDisplay:10.37,2013-05-24 14:00:00,
2013-05-24 10:05:00,65.3,52.4,30.00,WNW,294,10.0,18.0,63,0.00,BKN,SCT,0.00,584.0,WeatherDisplay:10.37,2013-05-24 14:05:00,
2013-05-24 10:10:00,65.2,51.4,30.00,WNW,298,6.0,15.0,61,0.00,FEW,SCT,0.00,724.0,WeatherDisplay:10.37,2013-05-24 14:10:00,
2013-05-24 10:15:00,65.4,52.0,30.00,WNW,303,9.0,17.0,62,0.00,CLR,SCT,0.00,765.0,WeatherDisplay:10.37,2013-05-24 14:15:00,
2013-05-24 10:20:00,65.5,51.7,30.01,NW,304,10.0,18.0,61,0.00,CLR,SCT,0.00,146.0,WeatherDisplay:10.37,2013-05-24 14:20:00,
2013-05-24 10:25:00,65.2,51.0,30.01,WNW,300,7.0,16.0,60,0.00,FEW,SCT,0.00,780.0,WeatherDisplay:10.37,2013-05-24 14:25:00,
2013-05-24 10:30:00,65.2,51.0,30.01,WNW,297,8.0,20.0,60,0.00,FEW,SCT,0.00,789.0,WeatherDisplay:10.37,2013-05-24 14:30:00,
2013-05-24 10:35:00,65.2,51.0,30.01,WNW,294,8.0,23.0,60,0.00,CLR,SCT,0.00,812.0,WeatherDisplay:10.37,2013-05-24 14:35:00,
2013-05-24 10:40:00,65.4,50.2,30.01,NW,305,13.0,23.0,58,0.00,CLR,SCT,0.00,831.0,WeatherDisplay:10.37,2013-05-24 14:40:00,
2013-05-24 10:45:00,65.5,49.9,30.02,NW,311,8.0,18.0,57,0.00,CLR,SCT,0.00,840.0,WeatherDisplay:10.37,2013-05-24 14:45:00,
2013-05-24 10:50:00,65.7,51.0,30.02,NW,312,8.0,20.0,59,0.00,CLR,SCT,0.00,858.0,WeatherDisplay:10.37,2013-05-24 14:50:00,
2013-05-24 10:55:00,65.7,49.1,30.02,NW,305,13.0,21.0,55,0.00,CLR,SCT,0.00,867.0,WeatherDisplay:10.37,2013-05-24 14:55:00,
2013-05-24 11:00:00,65.7,49.1,30.03,NW,309,12.0,20.0,55,0.00,CLR,SCT,0.00,872.0,WeatherDisplay:10.37,2013-05-24 15:00:00,
2013-05-24 11:05:00,65.6,49.0,30.03,NW,312,12.0,23.0,55,0.00,CLR,SCT,0.00,881.0,WeatherDisplay:10.37,2013-05-24 15:05:00,
2013-05-24 11:10:00,65.5,48.9,30.03,NW,313,9.0,20.0,55,0.00,CLR,SCT,0.00,893.0,WeatherDisplay:10.37,2013-05-24 15:10:00,
2013-05-24 11:15:00,65.5,49.4,30.03,NW,314,9.0,20.0,56,0.00,CLR,SCT,0.00,911.0,WeatherDisplay:10.37,2013-05-24 15:15:00,
2013-05-24 11:20:00,65.7,50.1,30.04,NW,307,8.0,18.0,57,0.00,CLR,SCT,0.00,918.0,WeatherDisplay:10.37,2013-05-24 15:20:00,
2013-05-24 11:25:00,65.7,49.1,30.04,WNW,299,9.0,16.0,55,0.00,CLR,SCT,0.00,928.0,WeatherDisplay:10.37,2013-05-24 15:25:00,
2013-05-24 11:30:00,65.9,50.2,30.05,NW,306,9.0,17.0,57,0.00,CLR,SCT,0.00,940.0,WeatherDisplay:10.37,2013-05-24 15:30:00,
2013-05-24 11:35:00,65.9,49.8,30.05,NW,307,7.0,17.0,56,0.00,CLR,SCT,0.00,949.0,WeatherDisplay:10.37,2013-05-24 15:35:00,
2013-05-24 11:40:00,65.8,49.2,30.06,WNW,300,9.0,20.0,55,0.00,CLR,SCT,0.00,954.0,WeatherDisplay:10.37,2013-05-24 15:40:00,
2013-05-24 11:45:00,65.4,48.8,30.06,NW,310,10.0,18.0,55,0.00,CLR,SCT,0.00,970.0,WeatherDisplay:10.37,2013-05-24 15:45:00,
2013-05-24 11:50:00,65.3,47.7,30.06,NW,320,7.0,18.0,53,0.00,CLR,SCT,0.00,976.0,WeatherDisplay:10.37,2013-05-24 15:50:00,
2013-05-24 11:55:00,65.3,48.2,30.07,NW,321,5.0,13.0,54,0.00,CLR,SCT,0.00,983.0,WeatherDisplay:10.37,2013-05-24 15:55:00,
2013-05-24 12:05:00,65.4,49.3,30.07,NW,326,8.0,14.0,56,0.00,CLR,SCT,0.00,1007.0,WeatherDisplay:10.37,2013-05-24 16:05:00,
2013-05-24 12:10:00,65.6,49.0,30.06,NNW,337,7.0,13.0,55,0.00,CLR,SCT,0.00,1027.0,WeatherDisplay:10.37,2013-05-24 16:10:00,
2013-05-24 12:15:00,65.6,48.5,30.07,NW,315,5.0,15.0,54,0.00,CLR,SCT,0.00,392.0,WeatherDisplay:10.37,2013-05-24 16:15:00,
2013-05-24 12:20:00,65.6,49.5,30.06,NW,308,6.0,17.0,56,0.00,CLR,SCT,0.00,1213.0,WeatherDisplay:10.37,2013-05-24 16:20:00,
2013-05-24 12:25:00,65.4,48.8,30.07,NW,316,7.0,14.0,55,0.00,FEW,SCT,0.00,325.0,WeatherDisplay:10.37,2013-05-24 16:25:00,
2013-05-24 12:30:00,65.4,50.2,30.07,NW,309,5.0,9.0,58,0.00,FEW,SCT,0.00,1248.0,WeatherDisplay:10.37,2013-05-24 16:30:00,
2013-05-24 12:35:00,65.7,49.1,30.07,NW,308,5.0,15.0,55,0.00,FEW,SCT,0.00,455.0,WeatherDisplay:10.37,2013-05-24 16:35:00,
2013-05-24 12:40:00,65.5,47.9,30.07,NW,319,9.0,14.0,53,0.00,SCT,SCT,0.00,338.0,WeatherDisplay:10.37,2013-05-24 16:40:00,
2013-05-24 12:45:00,64.8,47.2,30.07,NNW,327,7.0,15.0,53,0.00,BKN,SCT,0.00,1118.0,WeatherDisplay:10.37,2013-05-24 16:45:00,
2013-05-24 12:50:00,64.7,48.7,30.07,NW,324,9.0,17.0,56,0.00,SCT,SCT,0.00,1290.0,WeatherDisplay:10.37,2013-05-24 16:50:00,
2013-05-24 12:55:00,64.8,46.8,30.07,NW,305,6.0,13.0,52,0.00,FEW,SCT,0.00,1331.0,WeatherDisplay:10.37,2013-05-24 16:55:00,
2013-05-24 13:00:00,65.0,47.9,30.07,WNW,292,6.0,13.0,54,0.00,CLR,SCT,0.00,1320.0,WeatherDisplay:10.37,2013-05-24 17:00:00,
2013-05-24 13:05:00,65.3,48.7,30.07,NW,307,7.0,12.0,55,0.00,CLR,SCT,0.00,1208.0,WeatherDisplay:10.37,2013-05-24 17:05:00,
2013-05-24 13:10:00,65.3,47.7,30.07,NW,307,7.0,13.0,53,0.00,CLR,SCT,0.00,1243.0,WeatherDisplay:10.37,2013-05-24 17:10:00,
2013-05-24 13:15:00,65.4,48.3,30.07,WNW,300,7.0,14.0,54,0.00,CLR,SCT,0.00,1144.0,WeatherDisplay:10.37,2013-05-24 17:15:00,
2013-05-24 13:20:00,65.5,47.4,30.07,WNW,303,5.0,12.0,52,0.00,CLR,SCT,0.00,1097.0,WeatherDisplay:10.37,2013-05-24 17:20:00,
2013-05-24 13:25:00,65.7,48.1,30.07,NW,316,8.0,12.0,53,0.00,CLR,SCT,0.00,1125.0,WeatherDisplay:10.37,2013-05-24 17:25:00,
2013-05-24 13:30:00,65.6,47.0,30.07,NW,311,8.0,14.0,51,0.00,CLR,SCT,0.00,1067.0,WeatherDisplay:10.37,2013-05-24 17:30:00,
2013-05-24 13:35:00,65.6,48.0,30.07,WNW,295,8.0,17.0,53,0.00,CLR,SCT,0.00,1067.0,WeatherDisplay:10.37,2013-05-24 17:35:00,
2013-05-24 13:40:00,65.8,48.7,30.07,WNW,283,9.0,14.0,54,0.00,CLR,SCT,0.00,1095.0,WeatherDisplay:10.37,2013-05-24 17:40:00,
2013-05-24 13:45:00,66.0,48.9,30.07,WNW,290,2.0,10.0,54,0.00,CLR,SCT,0.00,1058.0,WeatherDisplay:10.37,2013-05-24 17:45:00,
2013-05-24 13:50:00,66.3,47.6,30.07,WNW,300,6.0,12.0,51,0.00,CLR,SCT,0.00,1051.0,WeatherDisplay:10.37,2013-05-24 17:50:00,
2013-05-24 13:55:00,66.5,47.3,30.07,NW,320,6.0,12.0,50,0.00,CLR,SCT,0.00,1046.0,WeatherDisplay:10.37,2013-05-24 17:55:00,
2013-05-24 14:00:00,66.8,46.5,30.07,NW,314,9.0,14.0,48,0.00,CLR,SCT,0.00,1051.0,WeatherDisplay:10.37,2013-05-24 18:00:00,
2013-05-24 14:05:00,66.9,46.6,30.07,WNW,292,7.0,12.0,48,0.00,CLR,SCT,0.00,1042.0,WeatherDisplay:10.37,2013-05-24 18:05:00,
2013-05-24 14:10:00,67.0,46.1,30.07,WNW,292,5.0,12.0,47,0.00,CLR,SCT,0.00,1039.0,WeatherDisplay:10.37,2013-05-24 18:10:00,
2013-05-24 14:15:00,67.2,47.4,30.07,NW,307,5.0,10.0,49,0.00,CLR,SCT,0.00,1039.0,WeatherDisplay:10.37,2013-05-24 18:15:00,
2013-05-24 14:20:00,67.4,47.6,30.07,NNW,327,6.0,13.0,49,0.00,CLR,SCT,0.00,1032.0,WeatherDisplay:10.37,2013-05-24 18:20:00,
2013-05-24 14:25:00,67.8,47.4,30.07,NNW,327,8.0,13.0,48,0.00,CLR,SCT,0.00,1032.0,WeatherDisplay:10.37,2013-05-24 18:25:00,
2013-05-24 14:30:00,67.9,47.5,30.06,NW,318,6.0,12.0,48,0.00,CLR,SCT,0.00,1039.0,WeatherDisplay:10.37,2013-05-24 18:30:00,
2013-05-24 14:35:00,68.1,46.5,30.06,NW,313,5.0,12.0,46,0.00,CLR,SCT,0.00,1014.0,WeatherDisplay:10.37,2013-05-24 18:35:00,
2013-05-24 14:40:00,68.3,47.3,30.06,NW,304,5.0,12.0,47,0.00,CLR,SCT,0.00,1011.0,WeatherDisplay:10.37,2013-05-24 18:40:00,
2013-05-24 14:45:00,68.6,47.6,30.06,NNW,336,5.0,13.0,47,0.00,CLR,SCT,0.00,1005.0,WeatherDisplay:10.37,2013-05-24 18:45:00,
2013-05-24 14:50:00,69.0,46.7,30.06,NW,326,6.0,12.0,45,0.00,CLR,SCT,0.00,998.0,WeatherDisplay:10.37,2013-05-24 18:50:00,
2013-05-24 14:55:00,69.2,47.5,30.06,NW,325,8.0,16.0,46,0.00,CLR,SCT,0.00,988.0,WeatherDisplay:10.37,2013-05-24 18:55:00,
2013-05-24 15:00:00,69.4,45.3,30.06,NW,318,8.0,16.0,42,0.00,CLR,SCT,0.00,983.0,WeatherDisplay:10.37,2013-05-24 19:00:00,
2013-05-24 15:05:00,69.4,45.9,30.06,WNW,289,6.0,10.0,43,0.00,CLR,SCT,0.00,979.0,WeatherDisplay:10.37,2013-05-24 19:05:00,
2013-05-24 15:10:00,69.5,47.8,30.06,West,278,3.0,14.0,46,0.00,CLR,SCT,0.00,986.0,WeatherDisplay:10.37,2013-05-24 19:10:00,
2013-05-24 15:15:00,69.8,48.1,30.06,WNW,292,5.0,13.0,46,0.00,CLR,SCT,0.00,997.0,WeatherDisplay:10.37,2013-05-24 19:15:00,
2013-05-24 15:20:00,69.9,48.2,30.06,NW,306,1.0,9.0,46,0.00,CLR,SCT,0.00,1014.0,WeatherDisplay:10.37,2013-05-24 19:20:00,
2013-05-24 15:25:00,70.1,45.3,30.06,NW,305,6.0,13.0,41,0.00,CLR,SCT,0.00,1004.0,WeatherDisplay:10.37,2013-05-24 19:25:00,
2013-05-24 15:30:00,70.2,48.4,30.06,WNW,303,3.0,9.0,46,0.00,SCT,SCT,0.00,192.0,WeatherDisplay:10.37,2013-05-24 19:30:00,
2013-05-24 15:35:00,69.9,45.8,30.06,NW,312,3.0,8.0,42,0.00,SCT,SCT,0.00,977.0,WeatherDisplay:10.37,2013-05-24 19:35:00,
2013-05-24 15:40:00,69.8,44.4,30.06,NW,322,6.0,12.0,40,0.00,SCT,SCT,0.00,930.0,WeatherDisplay:10.37,2013-05-24 19:40:00,
2013-05-24 15:45:00,69.9,44.4,30.06,NNW,341,6.0,12.0,40,0.00,FEW,SCT,0.00,895.0,WeatherDisplay:10.37,2013-05-24 19:45:00,
2013-05-24 15:50:00,70.2,44.1,30.06,NNW,335,7.0,10.0,39,0.00,CLR,SCT,0.00,893.0,WeatherDisplay:10.37,2013-05-24 19:50:00,
2013-05-24 15:55:00,70.4,42.9,30.06,NW,323,3.0,8.0,37,0.00,CLR,SCT,0.00,865.0,WeatherDisplay:10.37,2013-05-24 19:55:00,
2013-05-24 16:00:00,70.5,43.7,30.06,NNW,336,6.0,12.0,38,0.00,CLR,SCT,0.00,854.0,WeatherDisplay:10.37,2013-05-24 20:00:00,
2013-05-24 16:05:00,70.6,43.7,30.06,NW,321,7.0,12.0,38,0.00,CLR,SCT,0.00,840.0,WeatherDisplay:10.37,2013-05-24 20:05:00,
2013-05-24 16:10:00,70.6,43.7,30.06,NW,304,6.0,12.0,38,0.00,CLR,SCT,0.00,831.0,WeatherDisplay:10.37,2013-05-24 20:10:00,
2013-05-24 16:15:00,70.5,43.0,30.06,NW,308,6.0,15.0,37,0.00,CLR,SCT,0.00,817.0,WeatherDisplay:10.37,2013-05-24 20:15:00,
2013-05-24 16:20:00,70.3,43.5,30.06,WNW,298,7.0,16.0,38,0.00,CLR,SCT,0.00,803.0,WeatherDisplay:10.37,2013-05-24 20:20:00,
2013-05-24 16:25:00,70.4,44.2,30.06,NW,309,5.0,12.0,39,0.00,CLR,SCT,0.00,789.0,WeatherDisplay:10.37,2013-05-24 20:25:00,
2013-05-24 16:30:00,70.7,45.2,30.06,NW,323,5.0,13.0,40,0.00,CLR,SCT,0.00,775.0,WeatherDisplay:10.37,2013-05-24 20:30:00,
2013-05-24 16:35:00,70.8,42.5,30.07,NW,315,7.0,13.0,36,0.00,CLR,SCT,0.00,765.0,WeatherDisplay:10.37,2013-05-24 20:35:00,
2013-05-24 16:40:00,70.8,42.5,30.06,NW,312,8.0,14.0,36,0.00,CLR,SCT,0.00,749.0,WeatherDisplay:10.37,2013-05-24 20:40:00,
2013-05-24 16:45:00,70.4,40.7,30.07,NW,306,6.0,17.0,34,0.00,CLR,SCT,0.00,733.0,WeatherDisplay:10.37,2013-05-24 20:45:00,
2013-05-24 16:50:00,70.2,43.4,30.06,WNW,294,6.0,12.0,38,0.00,CLR,SCT,0.00,721.0,WeatherDisplay:10.37,2013-05-24 20:50:00,
2013-05-24 16:55:00,70.1,41.1,30.06,WNW,288,7.0,14.0,35,0.00,CLR,SCT,0.00,703.0,WeatherDisplay:10.37,2013-05-24 20:55:00,
2013-05-24 17:00:00,70.0,40.3,30.07,WNW,294,8.0,16.0,34,0.00,CLR,SCT,0.00,687.0,WeatherDisplay:10.37,2013-05-24 21:00:00,
2013-05-24 17:05:00,69.9,41.0,30.07,NW,304,9.0,16.0,35,0.00,CLR,SCT,0.00,670.0,WeatherDisplay:10.37,2013-05-24 21:05:00,
2013-05-24 17:10:00,69.7,40.8,30.07,WNW,302,8.0,14.0,35,0.00,CLR,SCT,0.00,654.0,WeatherDisplay:10.37,2013-05-24 21:10:00,
2013-05-24 17:15:00,69.9,41.7,30.07,WNW,293,6.0,12.0,36,0.00,CLR,SCT,0.00,638.0,WeatherDisplay:10.37,2013-05-24 21:15:00,
2013-05-24 17:20:00,70.1,41.2,30.07,NW,312,10.0,16.0,35,0.00,CLR,SCT,0.00,624.0,WeatherDisplay:10.37,2013-05-24 21:20:00,
2013-05-24 17:25:00,70.1,41.9,30.07,NW,309,5.0,15.0,36,0.00,CLR,SCT,0.00,606.0,WeatherDisplay:10.37,2013-05-24 21:25:00,
2013-05-24 17:30:00,70.1,39.6,30.07,WNW,301,9.0,14.0,33,0.00,CLR,SCT,0.00,591.0,WeatherDisplay:10.37,2013-05-24 21:30:00,
2013-05-24 17:35:00,69.8,39.4,30.07,NW,307,7.0,14.0,33,0.00,CLR,SCT,0.00,575.0,WeatherDisplay:10.37,2013-05-24 21:35:00,
2013-05-24 17:40:00,69.5,39.9,30.07,NW,306,8.0,14.0,34,0.00,CLR,SCT,0.00,555.0,WeatherDisplay:10.37,2013-05-24 21:40:00,
2013-05-24 17:45:00,69.5,38.4,30.08,NW,317,12.0,16.0,32,0.00,CLR,SCT,0.00,536.0,WeatherDisplay:10.37,2013-05-24 21:45:00,
2013-05-24 17:50:00,69.4,39.1,30.08,NNW,332,7.0,15.0,33,0.00,CLR,SCT,0.00,517.0,WeatherDisplay:10.37,2013-05-24 21:50:00,
2013-05-24 17:55:00,69.5,39.9,30.08,NNW,328,6.0,12.0,34,0.00,CLR,SCT,0.00,501.0,WeatherDisplay:10.37,2013-05-24 21:55:00,
2013-05-24 18:00:00,69.5,39.9,30.08,NNW,328,7.0,17.0,34,0.00,CLR,SCT,0.00,483.0,WeatherDisplay:10.37,2013-05-24 22:00:00,
2013-05-24 18:05:00,69.4,39.0,30.08,NW,324,7.0,16.0,33,0.00,CLR,SCT,0.00,466.0,WeatherDisplay:10.37,2013-05-24 22:05:00,
2013-05-24 18:10:00,69.4,39.0,30.08,NNW,327,7.0,12.0,33,0.00,CLR,SCT,0.00,446.0,WeatherDisplay:10.37,2013-05-24 22:10:00,
2013-05-24 18:15:00,69.4,39.0,30.08,NW,326,9.0,14.0,33,0.00,CLR,SCT,0.00,431.0,WeatherDisplay:10.37,2013-05-24 22:15:00,
2013-05-24 18:20:00,69.2,38.1,30.08,NNW,327,12.0,20.0,32,0.00,CLR,SCT,0.00,413.0,WeatherDisplay:10.37,2013-05-24 22:20:00,
2013-05-24 18:25:00,69.1,38.8,30.08,NW,324,7.0,14.0,33,0.00,CLR,SCT,0.00,394.0,WeatherDisplay:10.37,2013-05-24 22:25:00,
2013-05-24 18:30:00,68.9,38.6,30.08,NW,320,7.0,15.0,33,0.00,CLR,SCT,0.00,380.0,WeatherDisplay:10.37,2013-05-24 22:30:00,
2013-05-24 18:35:00,68.7,38.4,30.08,NW,320,7.0,12.0,33,0.00,CLR,SCT,0.00,360.0,WeatherDisplay:10.37,2013-05-24 22:35:00,
2013-05-24 18:40:00,68.7,40.0,30.09,NW,324,6.0,10.0,35,0.00,CLR,SCT,0.00,345.0,WeatherDisplay:10.37,2013-05-24 22:40:00,
2013-05-24 18:45:00,68.8,40.7,30.09,NW,318,5.0,15.0,36,0.00,CLR,SCT,0.00,327.0,WeatherDisplay:10.37,2013-05-24 22:45:00,
2013-05-24 18:50:00,68.7,39.2,30.09,NW,305,6.0,16.0,34,0.00,CLR,SCT,0.00,308.0,WeatherDisplay:10.37,2013-05-24 22:50:00,
2013-05-24 18:55:00,68.3,37.3,30.09,NW,306,10.0,17.0,32,0.00,CLR,SCT,0.00,290.0,WeatherDisplay:10.37,2013-05-24 22:55:00,
2013-05-24 19:00:00,68.0,37.0,30.09,NW,304,8.0,20.0,32,0.00,CLR,SCT,0.00,272.0,WeatherDisplay:10.37,2013-05-24 23:00:00,
2013-05-24 19:05:00,67.8,36.9,30.09,NW,314,8.0,14.0,32,0.00,CLR,SCT,0.00,257.0,WeatherDisplay:10.37,2013-05-24 23:05:00,
2013-05-24 19:10:00,67.6,37.5,30.09,NW,318,9.0,20.0,33,0.00,CLR,SCT,0.00,239.0,WeatherDisplay:10.37,2013-05-24 23:10:00,
2013-05-24 19:15:00,67.5,38.1,30.09,NW,315,5.0,12.0,34,0.00,CLR,SCT,0.00,221.0,WeatherDisplay:10.37,2013-05-24 23:15:00,
2013-05-24 19:20:00,67.4,38.8,30.10,NW,320,6.0,13.0,35,0.00,CLR,SCT,0.00,204.0,WeatherDisplay:10.37,2013-05-24 23:20:00,
2013-05-24 19:25:00,67.3,38.7,30.10,NW,322,6.0,12.0,35,0.00,CLR,SCT,0.00,186.0,WeatherDisplay:10.37,2013-05-24 23:25:00,
2013-05-24 19:30:00,67.0,37.7,30.10,NNW,327,6.0,14.0,34,0.00,CLR,SCT,0.00,167.0,WeatherDisplay:10.37,2013-05-24 23:30:00,
2013-05-24 19:35:00,66.9,36.8,30.11,NNW,327,7.0,12.0,33,0.00,CLR,SCT,0.00,155.0,WeatherDisplay:10.37,2013-05-24 23:35:00,
2013-05-24 19:40:00,66.6,36.6,30.11,NNW,333,5.0,10.0,33,0.00,CLR,SCT,0.00,139.0,WeatherDisplay:10.37,2013-05-24 23:40:00,
2013-05-24 19:45:00,66.4,37.2,30.11,NNW,337,3.0,12.0,34,0.00,CLR,SCT,0.00,123.0,WeatherDisplay:10.37,2013-05-24 23:45:00,
2013-05-24 19:50:00,66.2,37.7,30.11,NNW,335,3.0,8.0,35,0.00,CLR,SCT,0.00,107.0,WeatherDisplay:10.37,2013-05-24 23:50:00,
2013-05-24 19:55:00,65.9,37.5,30.12,NNW,334,5.0,10.0,35,0.00,CLR,SCT,0.00,83.0,WeatherDisplay:10.37,2013-05-24 23:55:00,
2013-05-24 20:00:00,65.6,38.6,30.12,NNW,338,2.0,6.0,37,0.00,BKN,SCT,0.00,28.0,WeatherDisplay:10.37,2013-05-25 00:00:00,
2013-05-24 20:05:00,65.2,38.2,30.12,North,360,1.0,6.0,37,0.00,BKN,SCT,0.00,23.0,WeatherDisplay:10.37,2013-05-25 00:05:00,
2013-05-24 20:10:00,64.7,38.5,30.12,North,4,1.0,4.0,38,0.00,BKN,SCT,0.00,21.0,WeatherDisplay:10.37,2013-05-25 00:10:00,
2013-05-24 20:15:00,64.2,38.7,30.12,North,3,0.0,4.0,39,0.00,BKN,SCT,0.00,12.0,WeatherDisplay:10.37,2013-05-25 00:15:00,
2013-05-24 20:20:00,63.7,38.9,30.13,North,3,2.0,6.0,40,0.00,BKN,SCT,0.00,11.0,WeatherDisplay:10.37,2013-05-25 00:20:00,
2013-05-24 20:25:00,63.1,38.4,30.13,NNW,347,2.0,6.0,40,0.00,BKN,SCT,0.00,7.0,WeatherDisplay:10.37,2013-05-25 00:25:00,
2013-05-24 20:30:00,62.6,37.9,30.13,NNW,336,3.0,7.0,40,0.00,BKN,SCT,0.00,5.0,WeatherDisplay:10.37,2013-05-25 00:30:00,
2013-05-24 20:35:00,62.3,37.6,30.13,NNW,330,3.0,7.0,40,0.00,BKN,SCT,0.00,0.0,WeatherDisplay:10.37,2013-05-25 00:35:00,
2013-05-24 20:40:00,62.0,38.0,30.13,NNW,327,2.0,7.0,41,0.00,BKN,SCT,0.00,0.0,WeatherDisplay:10.37,2013-05-25 00:40:00,
2013-05-24 20:45:00,61.7,38.3,30.13,NNW,334,2.0,8.0,42,0.00,BKN,SCT,0.00,0.0,WeatherDisplay:10.37,2013-05-25 00:45:00,
2013-05-24 20:50:00,61.3,38.0,30.13,NNW,339,3.0,6.0,42,0.00,BKN,SCT,0.00,0.0,WeatherDisplay:10.37,2013-05-25 00:50:00,
2013-05-24 20:55:00,61.1,37.8,30.13,NNW,338,2.0,5.0,42,0.00,BKN,SCT,0.00,0.0,WeatherDisplay:10.37,2013-05-25 00:55:00,
2013-05-24 21:00:00,60.9,38.2,30.13,NNW,335,1.0,8.0,43,0.00,BKN,SCT,0.00,0.0,WeatherDisplay:10.37,2013-05-25 01:00:00,
2013-05-24 21:05:00,60.7,37.4,30.14,NW,324,2.0,8.0,42,0.00,BKN,SCT,0.00,0.0,WeatherDisplay:10.37,2013-05-25 01:05:00,
2013-05-24 21:10:00,60.5,37.9,30.14,NW,317,2.0,6.0,43,0.00,BKN,SCT,0.00,0.0,WeatherDisplay:10.37,2013-05-25 01:10:00,
2013-05-24 21:15:00,60.3,37.7,30.14,NW,317,1.0,5.0,43,0.00,BKN,SCT,0.00,0.0,WeatherDisplay:10.37,2013-05-25 01:15:00,
2013-05-24 21:20:00,60.2,37.6,30.15,NW,312,1.0,7.0,43,0.00,BKN,SCT,0.00,0.0,WeatherDisplay:10.37,2013-05-25 01:20:00,
2013-05-24 21:25:00,60.0,37.4,30.15,NW,309,2.0,5.0,43,0.00,BKN,SCT,0.00,0.0,WeatherDisplay:10.37,2013-05-25 01:25:00,
2013-05-24 21:30:00,59.8,38.4,30.15,NW,309,0.0,4.0,45,0.00,BKN,SCT,0.00,0.0,WeatherDisplay:10.37,2013-05-25 01:30:00,
2013-05-24 21:35:00,59.6,38.2,30.16,NW,309,1.0,3.0,45,0.00,BKN,SCT,0.00,0.0,WeatherDisplay:10.37,2013-05-25 01:35:00,
2013-05-24 21:40:00,59.3,38.5,30.16,NW,309,0.0,2.0,46,0.00,BKN,SCT,0.00,0.0,WeatherDisplay:10.37,2013-05-25 01:40:00,
2013-05-24 21:45:00,59.0,37.7,30.16,NW,309,1.0,2.0,45,0.00,BKN,SCT,0.00,0.0,WeatherDisplay:10.37,2013-05-25 01:45:00,
2013-05-24 21:50:00,59.0,38.2,30.16,NW,309,1.0,4.0,46,0.00,BKN,SCT,0.00,0.0,WeatherDisplay:10.37,2013-05-25 01:50:00,
2013-05-24 21:55:00,59.0,38.8,30.17,NW,309,1.0,2.0,47,0.00,BKN,SCT,0.00,0.0,WeatherDisplay:10.37,2013-05-25 01:55:00,
2013-05-24 22:00:00,58.6,37.9,30.17,NW,309,0.0,2.0,46,0.00,BKN,SCT,0.00,0.0,WeatherDisplay:10.37,2013-05-25 02:00:00,
2013-05-24 22:05:00,58.4,38.2,30.17,NW,309,0.0,1.0,47,0.00,BKN,SCT,0.00,0.0,WeatherDisplay:10.37,2013-05-25 02:05:00,
2013-05-24 22:10:00,58.2,38.6,30.17,NW,309,0.0,3.0,48,0.00,BKN,SCT,0.00,0.0,WeatherDisplay:10.37,2013-05-25 02:10:00,
2013-05-24 22:15:00,57.9,38.8,30.17,NW,309,0.0,2.0,49,0.00,BKN,SCT,0.00,0.0,WeatherDisplay:10.37,2013-05-25 02:15:00,
2013-05-24 22:20:00,57.7,39.7,30.17,NW,309,0.0,2.0,51,0.00,BKN,SCT,0.00,0.0,WeatherDisplay:10.37,2013-05-25 02:20:00,
2013-05-24 22:25:00,57.3,38.8,30.17,NW,309,0.0,2.0,50,0.00,BKN,SCT,0.00,0.0,WeatherDisplay:10.37,2013-05-25 02:25:00,
2013-05-24 22:30:00,57.0,39.6,30.17,NW,309,0.0,2.0,52,0.00,BKN,SCT,0.00,0.0,WeatherDisplay:10.37,2013-05-25 02:30:00,
2013-05-24 22:35:00,56.7,38.8,30.18,NW,309,0.0,1.0,51,0.00,BKN,SCT,0.00,0.0,WeatherDisplay:10.37,2013-05-25 02:35:00,
2013-05-24 22:40:00,56.4,40.4,30.18,NW,309,0.0,2.0,55,0.00,BKN,SCT,0.00,0.0,WeatherDisplay:10.37,2013-05-25 02:40:00,
2013-05-24 22:45:00,55.8,41.6,30.19,NW,309,0.0,1.0,59,0.00,BKN,SCT,0.00,0.0,WeatherDisplay:10.37,2013-05-25 02:45:00,
2013-05-24 22:50:00,54.8,41.6,30.19,NW,309,0.0,1.0,61,0.00,BKN,SCT,0.00,0.0,WeatherDisplay:10.37,2013-05-25 02:50:00,
2013-05-24 22:55:00,54.0,42.1,30.19,NW,309,0.0,1.0,64,0.00,BKN,SCT,0.00,0.0,WeatherDisplay:10.37,2013-05-25 02:55:00,
2013-05-24 23:00:00,53.4,42.0,30.19,NW,309,0.0,0.0,65,0.00,BKN,SCT,0.00,0.0,WeatherDisplay:10.37,2013-05-25 03:00:00,
2013-05-24 23:05:00,53.0,41.5,30.19,NW,309,1.0,2.0,65,0.00,BKN,SCT,0.00,0.0,WeatherDisplay:10.37,2013-05-25 03:05:00,
2013-05-24 23:10:00,52.4,41.8,30.19,NW,309,0.0,2.0,67,0.00,BKN,SCT,0.00,0.0,WeatherDisplay:10.37,2013-05-25 03:10:00,
2013-05-24 23:15:00,52.1,41.8,30.18,NW,309,0.0,1.0,68,0.00,BKN,SCT,0.00,0.0,WeatherDisplay:10.37,2013-05-25 03:15:00,
2013-05-24 23:20:00,51.7,41.5,30.18,NW,309,0.0,1.0,68,0.00,BKN,SCT,0.00,0.0,WeatherDisplay:10.37,2013-05-25 03:20:00,
2013-05-24 23:25:00,51.4,40.5,30.18,NW,309,0.0,2.0,66,0.00,BKN,SCT,0.00,0.0,WeatherDisplay:10.37,2013-05-25 03:25:00,
2013-05-24 23:30:00,51.4,39.6,30.18,NW,309,0.0,3.0,64,0.00,BKN,SCT,0.00,0.0,WeatherDisplay:10.37,2013-05-25 03:30:00,
2013-05-24 23:35:00,51.5,38.9,30.19,NW,309,1.0,4.0,62,0.00,BKN,SCT,0.00,0.0,WeatherDisplay:10.37,2013-05-25 03:35:00,
2013-05-24 23:40:00,51.8,39.2,30.19,NW,309,0.0,3.0,62,0.00,BKN,SCT,0.00,0.0,WeatherDisplay:10.37,2013-05-25 03:40:00,
2013-05-24 23:45:00,52.0,38.9,30.19,NW,309,0.0,0.0,61,0.00,BKN,SCT,0.00,0.0,WeatherDisplay:10.37,2013-05-25 03:45:00,
2013-05-24 23:50:00,52.3,39.7,30.19,NW,309,0.0,1.0,62,0.00,BKN,SCT,0.00,0.0,WeatherDisplay:10.37,2013-05-25 03:50:00,
2013-05-24 23:55:00,52.4,41.0,30.19,NW,309,0.0,2.0,65,0.00,BKN,SCT,0.00,0.0,WeatherDisplay:10.37,2013-05-25 03:55:00,